This is the latest recevied weather packets stored in our database for station/object KE2HEH. If no packets are shown the sender has not sent any weather packets the latest 10 day(s).
| Time | Temp. | Humidity | Pressure | Rain* | Wind** | Luminosity | Snow |
|---|---|---|---|---|---|---|---|
| 1777530176 | 8.89° C | 96% | 1009.6 hPa | 1.27 mm | - | 0 W/m² | - |
| 1777529875 | 8.89° C | 96% | 1009.7 hPa | 0 mm | - | 0 W/m² | - |
| 1777529570 | 8.89° C | 96% | 1009.8 hPa | 0 mm | - | 0 W/m² | - |
| 1777529268 | 8.89° C | 96% | 1010.1 hPa | 0 mm | - | 0 W/m² | - |
| 1777528963 | 8.89° C | 96% | 1010.4 hPa | 0 mm | - | 0 W/m² | - |
| 1777528659 | 8.89° C | 96% | 1010.3 hPa | 0 mm | - | 0 W/m² | - |
| 1777528358 | 8.89° C | 96% | 1010.4 hPa | 1.78 mm | - | 0 W/m² | - |
| 1777528056 | 8.89° C | 96% | 1009.8 hPa | 4.83 mm | - | 0 W/m² | - |
| 1777527752 | 8.89° C | 96% | 1010.8 hPa | 4.83 mm | - | 0 W/m² | - |
| 1777527448 | 8.89° C | 96% | 1010.1 hPa | 4.32 mm | - | 0 W/m² | - |
| 1777527148 | 8.89° C | 96% | 1009.7 hPa | 6.1 mm | - | 0 W/m² | - |
| 1777526845 | 8.89° C | 96% | 1010 hPa | 4.83 mm | - | 0 W/m² | - |
| 1777526539 | 8.89° C | 96% | 1010.4 hPa | 3.05 mm | - | 0 W/m² | - |
| 1777526234 | 8.89° C | 96% | 1011 hPa | 3.05 mm | - | 0 W/m² | - |
| 1777525930 | 8.89° C | 96% | 1011.2 hPa | 3.05 mm | - | 0 W/m² | - |
| 1777525628 | 8.89° C | 96% | 1011.3 hPa | 1.27 mm | - | 0 W/m² | - |
| 1777525325 | 8.89° C | 96% | 1011.4 hPa | 1.78 mm | - | 0 W/m² | - |
| 1777525021 | 8.89° C | 96% | 1011.1 hPa | 1.78 mm | - | 0 W/m² | - |
| 1777524718 | 8.89° C | 95% | 1010.8 hPa | 0 mm | - | 0 W/m² | - |
| 1777524416 | 8.89° C | 95% | 1011.2 hPa | 0 mm | - | 0 W/m² | - |
| 1777524112 | 8.89° C | 96% | 1011.3 hPa | 0 mm | - | 0 W/m² | - |
| 1777523809 | 8.89° C | 95% | 1010.9 hPa | 0 mm | - | 0 W/m² | - |
| 1777523505 | 8.33° C | 95% | 1011.1 hPa | 1.78 mm | - | 0 W/m² | - |
| 1777523202 | 8.33° C | 96% | 1010.5 hPa | 1.78 mm | - | 0 W/m² | - |
| 1777522897 | 8.33° C | 96% | 1010.3 hPa | 1.27 mm | - | 0 W/m² | - |
* Rain latest hour (hover to see other rain measurements)
** Current wind speed in m/s (hover to see current wind gust speed)